Regional Weather Roundup
Issued by NWS

Home | Current Version | Previous Version | Text Only | Print | Product List | Glossary On
Versions: 1 2 3 4 5 6 7 8 9 10 11 12 13 14 15 16 17 18 19 20 21 22 23 24 25 26 27 28 29 30 31 32 33 34 35 36 37 38 39 40 41 42 43 44 45 46 47 48 49 50
000
ASUS43 KMKX 202200
RWRWI

WISCONSIN REGIONAL WEATHER ROUNDUP
NATIONAL WEATHER SERVICE MILWAUKEE/SULLIVAN WI
400 PM CST SAT DEC 20 2014

NOTE: "FAIR" INDICATES FEW OR NO CLOUDS BELOW 12,000 FEET WITH NO
SIGNIFICANT WEATHER AND/OR OBSTRUCTIONS TO VISIBILITY.

WIZ001-002-006>008-014>016-023>028-202300-
NORTHWEST WISCONSIN

CITY           SKY/WX    TMP DP  RH WIND       PRES   REMARKS
SUPERIOR ARPT  CLOUDY    32  28  85 S6        30.12R WCI  26
ASHLAND        CLOUDY    31  26  82 S5        30.15R WCI  26
HAYWARD        CLOUDY    30  25  81 S7        30.12S WCI  23
SIREN          CLOUDY    32  28  83 S8        30.12S HAZE    WCI  25
CUMBERLAND     CLOUDY    30  27  86 S10       30.12R FOG     WCI  21
RICE LAKE      CLOUDY    31  27  82 SE9       30.15R WCI  23
CHETEK         CLOUDY    31  27  85 SE6       30.14R WCI  25
LADYSMITH      CLOUDY    31  27  86 S7        30.16S FOG     WCI  24
EAU CLAIRE     CLOUDY    32  25  75 SE7       30.15S WCI  26
MENOMONIE      CLOUDY    32  28  83 SE8       30.15R HAZE    WCI  25
NEW RICHMOND   CLOUDY    31  30  96 S6        30.13S FOG     WCI  25
OSCEOLA        CLOUDY    32  31  95 S8        30.16R FOG     WCI  25
$$

WIZ003>005-009-010-017-018-202300-
NORTH CENTRAL WISCONSIN

CITY           SKY/WX    TMP DP  RH WIND       PRES   REMARKS
MANITOWISH WTR CLOUDY    27  26  95 S6        30.13S WCI  20
ARBOR VITAE    CLOUDY    29  26  89 S6        30.14R FOG     WCI  23
WOODRUFF       CLOUDY    29  26  89 S6        30.14R FOG     WCI  23
RHINELANDER    CLOUDY    27  24  89 S7        30.15R FOG     WCI  19
EAGLE RIVER    CLOUDY    28  27  99 CALM      30.14R
LAND O LAKES   CLOUDY    28  26  96 S5        30.14S WCI  22
PHILLIPS       CLOUDY    28  25  87 S7        30.13S WCI  21
TOMAHAWK       CLOUDY    28  25  89 CALM      30.16S FOG
MEDFORD        CLOUDY    28  25  89 SE5       30.14F FOG     WCI  23
MERRILL        CLOUDY    28  26  92 CALM      30.17S FOG
$$

WIZ029-030-035-036-043>047-202300-
CENTRAL WISCONSIN

CITY           SKY/WX    TMP DP  RH WIND       PRES   REMARKS
WAUSAU         CLOUDY    30  24  78 SE7       30.16S WCI  23
MOSINEE        CLOUDY    28  27  93 S5        30.18S WCI  23
MARSHFIELD     CLOUDY    30  25  81 SE7       30.16S HAZE    WCI  23
STEVENS POINT  CLOUDY    28  24  85 SE3       30.19S
WAUPACA        LGT SNOW  32  26  80 SE5       30.22S WCI  27
WAUTOMA        NOT AVBL
WISC RAPIDS    CLOUDY    31  24  75 SE6       30.20S WCI  25
CAMP DOUGLAS   CLOUDY    30  30 100 SE7       30.18S WCI  23
$$

WIZ011>013-019>022-031-037>040-048>050-202300-
NORTHEAST WISCONSIN

CITY           SKY/WX    TMP DP  RH WIND       PRES   REMARKS
ANTIGO         CLOUDY    26  24  91 S6        30.17S WCI  19
SHAWANO        CLOUDY    32  25  77 CALM      30.22S
OCONTO         CLOUDY    29  24  82 CALM      30.23S
STURGEON BAY   CLOUDY    28  23  80 CALM      30.25S
GREEN BAY      CLOUDY    30  24  78 SW3       30.23S
MANITOWOC      NOT AVBL
APPLETON       LGT SNOW  28  23  80 VRB5      30.22S WCI  23
CLINTONVILLE   CLOUDY    30  25  80 S3        30.22S
OSHKOSH        LGT SNOW  29  24  82 S3        30.22F
$$

WIZ032>034-041-042-053>061-202300-
SOUTHWEST WISCONSIN

CITY           SKY/WX    TMP DP  RH WIND       PRES   REMARKS
LA CROSSE      CLOUDY    33  28  81 S5        30.18S WCI  29
SPARTA         CLOUDY    31  26  83 SE7       30.19S HAZE    WCI  24
VIROQUA        CLOUDY    30  30 100 SE7       30.15F WCI  23
BOSCOBEL       CLOUDY    33  26  75 CALM      30.20S
PRAIRIE DU CHI CLOUDY    32  27  83 E7        30.19S HAZE    WCI  26
PLATTEVILLE    CLOUDY    31  27  84 CALM      30.19S
$$

WIZ056-057-062-063-064-067-068-202300-
SOUTH CENTRAL WISCONSIN

CITY           SKY/WX    TMP DP  RH WIND       PRES   REMARKS
REEDSBURG      CLOUDY    29  26  88 SE3       30.19S
BARABOO/DELLS  CLOUDY    29  26  86 SE3       30.19F FOG
LONE ROCK      NOT AVBL
MINERAL POINT  CLOUDY    32  28  86 SE7       30.17S HAZE    WCI  26
MADISON        FLURRIES  30  26  85 S7        30.21S WCI  23
MIDDLETON      CLOUDY    31  28  88 SE5       30.21S WCI  27
WATERTOWN      MIX PCPN  29  28  96 CALM      30.22S
MONROE         CLOUDY    30  28  93 SE6       30.19S WCI  24
JANESVILLE     NOT AVBL
$$

WIZ051-052-058>065-066-070>072-202300-
SOUTHEAST WISCONSIN

CITY           SKY/WX    TMP DP  RH WIND       PRES   REMARKS
MILWAUKEE      CLOUDY    31  22  69 SW5       30.24R WCI  26
WAUKESHA       FLURRIES  28  23  80 CALM      30.24R
MILWAUKEE/TIMM FLURRIES  30  21  69 CALM      30.25R
RACINE         CLOUDY    31  24  75 W3        30.26R
BURLINGTON     CLOUDY    30  24  79 CALM      30.23S
KENOSHA        CLOUDY    32  25  75 CALM      30.23S
FOND DU LAC    LGT SNOW  30  24  78 S5        30.23R WCI  25
SHEBOYGAN      CLOUDY    30  24  78 W3        30.23S HAZE
WEST BEND      LGT SNOW  30  23  74 CALM      30.22S
JUNEAU         CLOUDY    29  25  85 S3        30.23S
$$

LSZ147-162-202300-
LAKE SUPERIOR

STATION/POSITION TIME  TEMP    WIND        PRES    WAVE
                       AIR SEA DIR/SP/G            HT/PER
                 (UTC) (F)     (DEG/KT/KT) (MB)    (FT/S)
DEVILS ISLAND    2100   32     200/  9/ 13 1021.2S
PORT WING        2140   33     190/  5/  8 1020.7R
SAXON HARBOR     2100   33     190/  4/  9 1020.7S
$$

LMZ867-665-643>646-202300-
LAKE MICHIGAN

STATION/POSITION TIME  TEMP    WIND        PRES    WAVE
                       AIR SEA DIR/SP/G            HT/PER
                 (UTC) (F)     (DEG/KT/KT) (MB)    (FT/S)
CHAMBERS ISLAND  2100   29     230/  2/  4 1024.0R
NORTHPORT PIER   2140   30      CALM  /  2 1024.0R
SISTER BAY       2113             CALM       N/A
ALGOMA LAKESHORE 2114             CALM       N/A
KEWAUNEE LAKESHO 2100   32      CALM  /  1 1022.7R
SHEBOYGAN LAKESH 2100   32 34  360/  4/  5 1024.7R
PORT WASHINGTON  2140   31     260/  4/  5 1024.7R
MILWAUKEE LAKESH 2115   31     310/  1/  3   N/A
KENOSHA   LAKESH 2100   32      CALM  /  2 1024.0S
$$

TC  - TEMPERATURE IN CELSIUS
VSB - VISIBILITY IN STATUTE MILES
WCI - WIND CHILL INDEX
HX  - HEAT INDEX




USA.gov is the U.S. government's official web portal to all federal, state and local government web resources and services.